SES-2 (37809 NORAD) Tracking and Keplerian Element Data

This shows tracking and keplerian element data for the satellite.

Feedback or suggestion? Click here.




ElementValue
Catalog37809
NameSES-2
Epoch Orbit4896
Epoch Day34.5948855
Epoch Year2025
RAAN275.5198
Inclination0.054
Eccentricity0.0002361
Argument of Perigee41.3934
Mean Anonmoly304.2463
Mean Motion1.00271371
Decay Rate-1.91E-06
L11 37809U 11049A 25034.59488550 -.00000191 00000+0 00000+0 0 9990
L22 37809 0.0540 275.5198 0002361 41.3934 304.2463 1.00271371 48962



Live tracking and technical data element details for SES-2 (NORAD 37809). SES-2 can be tracked NOW for your location showing map with azimuth and elevation plus other details from your city location.







IsCatalogInMostPopularTable: catalog: 37809, numindb: 347
Update: records affected: 1



GetName: 37809 SES-2

Hit Count: updated at: Sat, 17 May 2025 09:59:18 GMT